Flag for Germany Weather past 2 weeks in Fürstenwalde/Spree, Brandenburg, Germany

Now
51 °F

Fog.


Feels Like: 50 °F
Forecast: 38 / 50 °F
Wind: 3 mph from Northeast

Location: Lindenberg

Current Time: Oct 23, 2014 at 6:42:43 AM

Latest Report: Oct 23, 2014 at 6:00 AM


Visibility: 4 mi

Pressure: 30.00 "Hg

Humidity: 94%

Dew point: 49 °F

Location of Fürstenwalde/SpreeLocation

Historic Weather in Fürstenwalde/Spree — Graph

°F

Fürstenwalde/Spree temperature yesterday

Maximum temperature yesterday: 53 °F (at 1:00 AM)
Minimum temperature yesterday: 46 °F (at 8:00 AM)
Average temperature yesterday: 48 °F

Past Weeks' High & Low Weather Summary

 TemperatureHumidityPressure
High71 °F (Oct 9, 3:00 PM)100% (Oct 17, 12:00 AM)30.24 "Hg (Oct 17, 12:00 AM)
Low46 °F (Oct 22, 8:00 AM)61% (Oct 10, 3:00 PM)29.44 "Hg (Oct 22, 12:00 AM)
Average57 °F89%29.86 "Hg
* Reported Oct 8 5:00 AM — Oct 23 5:00 AM, Fürstenwalde/Spree, Weather by CustomWeather, © 2014

Note: Actual official high and low records may vary slightly from our data, if they occured in-between our weather recording intervals... More about our weather records

Advertising

Fürstenwalde/Spree weather history for previous 24 hours

 ConditionsComfort  
Time TempWeatherWind HumidityBarometerVisibility
5:00 AM
Oct 23
52 °FFog.2 mph95%29.97 "Hg4 mi
4:00 AM52 °FFog.3 mph97%29.95 "Hg2 mi
3:00 AM52 °FFog.2 mph98%29.94 "Hg2 mi
2:00 AM52 °FLow clouds.2 mph97%29.92 "Hg2 mi
1:00 AM52 °FDrizzle. Low clouds.2 mph97%29.90 "Hg2 mi
12:00 AM52 °FLight rain. Low clouds.3 mph97%29.88 "Hg2 mi
10:00 PM
Oct 22
51 °FLight rain. Low clouds.3 mph99%29.83 "Hg2 mi
9:00 PM49 °FLight rain. Low clouds.2 mph98%29.80 "Hg2 mi
8:00 PM49 °FLight rain. Low clouds.3 mph98%29.77 "Hg2 mi
7:00 PM49 °FRain. Low clouds.2 mph100%29.74 "Hg1 mi
6:00 PM48 °FRain. Low clouds.2 mph99%29.71 "Hg1 mi
4:00 PM48 °FLight rain. Low clouds.3 mph97%29.67 "Hg3 mi
3:00 PM48 °FLight rain. Low clouds.5 mph97%29.66 "Hg5 mi
2:00 PM48 °FLight rain. Low clouds.6 mph97%29.65 "Hg3 mi
1:00 PM48 °FLight rain. Low clouds.6 mph97%29.63 "Hg5 mi
12:00 PM47 °FRain. Low clouds.5 mph98%29.64 "Hg3 mi
10:00 AM46 °FLight rain. Low clouds.6 mph97%29.63 "Hg4 mi
9:00 AM46 °FLight rain. Low clouds.5 mph96%29.62 "Hg5 mi
8:00 AM46 °FLight rain. Low clouds.6 mph96%29.61 "Hg5 mi
7:00 AM46 °FLight rain. Low clouds.6 mph96%29.59 "Hg5 mi
6:00 AM47 °FLight rain. Low clouds.6 mph95%29.58 "Hg5 mi
Weather by CustomWeather, © 2014

See weather overviewHow to use our weather pages